THORAD AGENA D DEB, 42551

Orbit data source: Space-Track

THORAD AGENA D DEB, 42551 is space debris in SSO originally from a launch on Wed, 08 Apr 1970 UTC launched from the Air Force Western Test Range (AFWTR). Debris objects in space refer to the collection of defunct objects orbiting the Earth. Examples of debris include non-operational satellites, rocket bodies, and fragments generated from explosions, collisions, or faulty payload assembly.

Loading next visibility...
Identifier
42551, 1970-025TH
Orbit
SSO
Country
Flag of USUS
Related business
Manufacturer
Unknown
Mission
Spacecraft
Bus & Motor
Unknown
Mass
Unknown
Launch date (UTC)
1970-04-08 (56 years ago)
Launch vehicle
Unknown
Launch site
Air Force Western Test Range (AFWTR)
Object type
Payload
Rocket body
Debris
Shape & HBR
Unknown shape, 0.1 m
Radar Cross Section
Small (<0.1 m²)

Expand to show TLE details & history
Last TLE update: 1 day ago

TLE from 1 day ago
0 THORAD AGENA D DEB
1 42551U 70025TH  26035.11416765  .00001614  00000-0  11015-2 0  9990
2 42551  99.9814  96.6065 0010607  60.5110 299.7109 14.01523942620992
Epoch: 2026-02-04T02:44Z
TLE epoch observation values (Epoch: 2026-02-04T02:44:24.084Z)
Latitude
-0.00002°
Longitude
-78.77924°
Altitude
887.554 km
Speed
7.41 km/s
True Right ascension
06h 26m 25s
True Declination
0° 00' 00"
Sunlit
Object was in full shadow at epoch
Visualization orbit readout
Latitude
Unknown
Longitude
Unknown
Altitude
Unknown
Speed
Unknown
Apparent Right ascension
Unknown
Apparent Declination
Unknown
Sunlit
N/A
Visualization observer readout
Local Sidereal Time
14:54:49
Azimuth
Unknown
Elevation
Unknown
Doppler factor
Unknown
Orbital elements
Apogee altitude
893.476 km
Perigee altitude
878.066 km
Semi-major axis
7,263.908 km
Eccentricity
0.00106
Inclination
99.9814°
RAAN
96.6065°
Arg. of periapsis
60.511°
True anomaly
299.60526°
Mean anomaly
299.7109°
Eccentric anomaly
299.65809°
Mean motion
3.5058 °/min
Orbital period
102.69 mins
BSTAR
0.0011015
Loading maneuver chart data...
Computing Atmospheric mass density...

Documentation

Showing up to 5 results
|